STARLINK-32477, 62038

Orbit data source: Space-Track

STARLINK-32477, 62038 is a payload satellite owned by SpaceX/Seattle (US) in LEO that was launched on Thu, 21 Nov 2024 UTC via an FALCON 9 launch vehicle from the Air Force Eastern Test Range (AFETR). Payload-class satellites include a variety of spacecraft equipped with specific instruments for various scientific and technological missions. These include communications satellites like Starlink; space stations such as the ISS; scientific satellites like the Hubble; Earth observation satellites from companies like Planet Labs, Umbra, and HawkEye 360; GPS; miniature CubeSats for education and research; and military/defense satellites.

Loading next visibility...
Identifier
62038, 2024-216G
Orbit
LEO
Country
Flag of USUS
Related business
Manufacturer
SpaceX/Seattle
Mission
Partially operational Commercial Communications
Bus & Motor
STARLINK V2M, Unknown motor
Mass
730 kg wet, ~700 kg dry
Launch date (UTC)
2024-11-21 (1 year ago)
Launch vehicle
FALCON 9
Launch site
Air Force Eastern Test Range (AFETR)
Object type
Payload
Rocket body
Debris
Shape & HBR
Box + 2 Pan, 17.7 m
Radar Cross Section
33.884 m², Large (>1 m²)

Expand to show TLE details & history
Last TLE update: 10 hours ago

TLE from 10 hours ago
0 STARLINK-32477
1 62038U 24216G   26037.25002315  .00090502  00000-0  29193-2 0  9992
2 62038  42.9999  70.0332 0003176  71.9538 223.0371 15.31145083  5800
Epoch: 2026-02-06T06:00Z
TLE epoch observation values (Epoch: 2026-02-06T06:00:02.000Z)
Latitude
-38.36086°
Longitude
146.06154°
Altitude
485.354 km
Speed
7.622 km/s
True Right ascension
00h 49m 50s
True Declination
-38° 11' 13"
Sunlit
Object was in daylight at epoch
Visualization orbit readout
Latitude
Unknown
Longitude
Unknown
Altitude
Unknown
Speed
Unknown
Apparent Right ascension
Unknown
Apparent Declination
Unknown
Sunlit
N/A
Visualization observer readout
Local Sidereal Time
17:42:01
Azimuth
Unknown
Elevation
Unknown
Doppler factor
Unknown
Orbital elements
Apogee altitude
476.519 km
Perigee altitude
472.167 km
Semi-major axis
6,852.48 km
Eccentricity
0.00032
Inclination
42.9999°
RAAN
70.0332°
Arg. of periapsis
71.9538°
True anomaly
223.01227°
Mean anomaly
223.0371°
Eccentric anomaly
223.02468°
Mean motion
3.82623 °/min
Orbital period
94.09 mins
BSTAR
0.0029193
Loading maneuver chart data...
Computing Atmospheric mass density...
Loading historical data...
Loading historical data...
Loading historical data...
Loading historical data...
Loading historical data...
Loading historical data...
Loading historical data...

Documentation

Showing up to 5 results
|